Weather History for 45011 - June, 2013

Change the Weather History Date:

Thursday, June 27, 2013

  Actual Average Record
Temperature  
Mean Temperature 84 °F -  
Max Temperature 88 °F 85 °F - ()
Min Temperature 81 °F 78 °F - ()
Cooling Degree Days 20    
Growing Degree Days 34 (Base 50)    
Moisture  
Dew Point 78 °F    
Average Humidity 79    
Maximum Humidity 89    
Minimum Humidity 63    
Precipitation  
Precipitation 0.00 in - - ()
Sea Level Pressure  
Sea Level Pressure 29.69 in    
Wind  
Wind Speed 12 mph ()    
Max Wind Speed 17 mph    
Max Gust Speed -    
Visibility 6.7 miles    
Events      
T = Trace of Precipitation, MM = Missing Value Source: Averaged Metar Reports

Daily Weather History Graph

Daily Weather History Graph

Search for Another Location

Airport or City:

Trip Planner

Search our weather history database for the weather conditions in past years. The results will help you decide how hot, cold, wet, or windy it might be!

Date:

Astronomy

Jun. 27, 2013 Rise Set
Actual Time 5:44 AM CST 7:13 PM CST
Civil Twilight 5:19 AM CST 7:38 PM CST
Nautical Twilight 4:49 AM CST 8:08 PM CST
Astronomical Twilight 4:18 AM CST 8:39 PM CST
Moon 10:26 PM CST (6/27) 9:35 AM CST (6/27)
Length of Visible Light 14h 19m
Length of Day
13h 28m
Waning Gibbous, 81% of the Moon is Illuminated
Jun 27
Waning Gibbous
Jun 30
Last Quarter
Jul 8
New
Jul 16
First Quarter
Jul 23
Full

Hourly Weather History & Observations

Time (CST) Temp. Heat Index Dew Point Humidity Pressure Visibility Wind Dir Wind Speed Gust Speed Precip Events Conditions
12:00 AM 84.2 °F 96.1 °F 78.8 °F 84% 29.71 in 6.2 mi SSW 12.7 mph - N/A   Scattered Clouds
12:30 AM 84.2 °F 96.1 °F 78.8 °F 84% 29.71 in 6.2 mi SSW 13.8 mph - N/A   Scattered Clouds
1:00 AM 84.2 °F 96.1 °F 78.8 °F 84% 29.71 in 6.2 mi SSW 12.7 mph - N/A   Scattered Clouds
1:30 AM 84.2 °F 96.1 °F 78.8 °F 84% 29.71 in 6.2 mi SSW 13.8 mph - N/A   Scattered Clouds
2:00 AM 82 °F - 78 °F 86% 29.72 in 9 mi South 6.9 mph - -  
2:00 AM 84.2 °F 96.1 °F 78.8 °F 84% 29.68 in 6.2 mi SSW 13.8 mph - N/A   Scattered Clouds
2:30 AM 84.2 °F 96.1 °F 78.8 °F 84% 29.68 in 6.2 mi SSW 15.0 mph - N/A   Scattered Clouds
3:00 AM 84.2 °F 96.1 °F 78.8 °F 84% 29.68 in 6.2 mi SSW 15.0 mph - N/A   Scattered Clouds
3:30 AM 82.4 °F 92.4 °F 78.8 °F 89% 29.68 in 6.2 mi SSW 12.7 mph - N/A   Scattered Clouds
4:00 AM 82.4 °F 92.4 °F 78.8 °F 89% 29.68 in 6.2 mi SSW 15.0 mph - N/A   Scattered Clouds
4:30 AM 84.2 °F 96.1 °F 78.8 °F 84% 29.68 in 6.2 mi SSW 13.8 mph - N/A   Scattered Clouds
5:00 AM 84.2 °F 96.1 °F 78.8 °F 84% 29.71 in 6.2 mi SSW 13.8 mph - N/A   Scattered Clouds
5:30 AM 84.2 °F 96.1 °F 78.8 °F 84% 29.68 in 6.2 mi SSW 15.0 mph - N/A   Scattered Clouds
6:00 AM 84.2 °F 94.1 °F 77.0 °F 79% 29.71 in 6.2 mi SSW 12.7 mph - N/A   Scattered Clouds
6:30 AM 84.2 °F 94.1 °F 77.0 °F 79% 29.71 in 6.2 mi SSW 11.5 mph - N/A   Scattered Clouds
7:00 AM 84.2 °F 94.1 °F 77.0 °F 79% 29.71 in 6.2 mi SSW 13.8 mph - N/A   Scattered Clouds
7:30 AM 84.2 °F 94.1 °F 77.0 °F 79% 29.71 in 6.2 mi SW 13.8 mph - N/A   Scattered Clouds
8:00 AM 83 °F - 78 °F 80% 29.74 in 9 mi SSW 6.9 mph - -   Clear
8:00 AM 84.2 °F 94.1 °F 77.0 °F 79% 29.71 in 6.2 mi SW 16.1 mph - N/A   Scattered Clouds
8:30 AM 86.0 °F 96.9 °F 77.0 °F 74% 29.71 in 6.2 mi SW 15.0 mph - N/A   Scattered Clouds
9:00 AM 86.0 °F 96.9 °F 77.0 °F 74% 29.71 in 6.2 mi SW 17.3 mph - N/A   Scattered Clouds
9:30 AM 86.0 °F 96.9 °F 77.0 °F 74% 29.71 in 6.2 mi SW 16.1 mph - N/A   Scattered Clouds
10:00 AM 86.0 °F 96.9 °F 77.0 °F 74% 29.71 in 6.2 mi SW 16.1 mph - N/A   Scattered Clouds
10:30 AM 87.8 °F 102.5 °F 78.8 °F 75% 29.71 in 6.2 mi SSW 15.0 mph - N/A   Scattered Clouds
11:00 AM 85 °F - 78 °F 74% 29.73 in 11 mi South 8.1 mph - -  
11:00 AM 86.0 °F 96.9 °F 77.0 °F 74% 29.71 in 6.2 mi SSW 15.0 mph - N/A   Scattered Clouds
11:30 AM 86.0 °F 96.9 °F 77.0 °F 74% 29.71 in 6.2 mi SSW 13.8 mph - N/A   Scattered Clouds
12:00 PM 87.8 °F 102.5 °F 78.8 °F 75% 29.71 in 6.2 mi SSW 15.0 mph - N/A   Scattered Clouds
12:30 PM 87.8 °F 102.5 °F 78.8 °F 75% 29.71 in 6.2 mi SSW 13.8 mph - N/A   Scattered Clouds
1:00 PM 87.8 °F 102.5 °F 78.8 °F 75% 29.71 in 6.2 mi SSW 15.0 mph - N/A   Partly Cloudy
1:30 PM 87.8 °F 99.7 °F 77.0 °F 70% 29.71 in 6.2 mi SSW 15.0 mph - N/A   Partly Cloudy
2:00 PM 88 °F - 77 °F 63% 29.71 in 12 mi South 6.9 mph - -  
2:00 PM 87.8 °F 99.7 °F 77.0 °F 70% 29.68 in 6.2 mi SSW 16.1 mph - N/A   Partly Cloudy
2:30 PM 87.8 °F 99.7 °F 77.0 °F 70% 29.68 in 6.2 mi SSW 15.0 mph - N/A   Partly Cloudy
3:00 PM 87.8 °F 99.7 °F 77.0 °F 70% 29.68 in 6.2 mi SW 15.0 mph - N/A   Partly Cloudy
3:30 PM 87.8 °F 99.7 °F 77.0 °F 70% 29.65 in 6.2 mi SSW 15.0 mph - N/A   Partly Cloudy
4:00 PM 87.8 °F 99.7 °F 77.0 °F 70% 29.65 in 6.2 mi SSW 15.0 mph - N/A   Scattered Clouds
4:30 PM 86.0 °F 96.9 °F 77.0 °F 74% 29.65 in 6.2 mi SW 15.0 mph - N/A   Scattered Clouds
5:00 PM 85 °F - 78 °F 75% 29.68 in 12 mi SW 6.9 mph - -  
5:00 PM 86.0 °F 99.3 °F 78.8 °F 79% 29.65 in 6.2 mi SSW 12.7 mph - N/A   Scattered Clouds
5:30 PM 86.0 °F 99.3 °F 78.8 °F 79% 29.65 in 6.2 mi SSW 12.7 mph - N/A   Scattered Clouds
6:00 PM 86.0 °F 96.9 °F 77.0 °F 74% 29.65 in 6.2 mi SSW 11.5 mph - N/A   Scattered Clouds
6:30 PM 86.0 °F 99.3 °F 78.8 °F 79% 29.65 in 6.2 mi SSW 11.5 mph - N/A   Partly Cloudy
7:00 PM 84.2 °F 96.1 °F 78.8 °F 84% 29.65 in 6.2 mi SSW 11.5 mph - N/A   Partly Cloudy
7:30 PM 84.2 °F 94.1 °F 77.0 °F 79% 29.68 in 6.2 mi SW 13.8 mph - N/A   Partly Cloudy
8:00 PM 82 °F - 78 °F 85% 29.70 in 9 mi South 4.6 mph - -  
8:00 PM 84.2 °F 94.1 °F 77.0 °F 79% 29.68 in 6.2 mi SSW 10.4 mph - N/A   Partly Cloudy
8:30 PM 84.2 °F 96.1 °F 78.8 °F 84% 29.68 in 6.2 mi SSW 8.1 mph - N/A   Partly Cloudy
9:00 PM 84.2 °F 96.1 °F 78.8 °F 84% 29.68 in 6.2 mi SSW 10.4 mph - N/A   Partly Cloudy
9:30 PM 84.2 °F 96.1 °F 78.8 °F 84% 29.71 in 6.2 mi SSW 10.4 mph - N/A   Partly Cloudy
10:00 PM 84.2 °F 96.1 °F 78.8 °F 84% 29.71 in 6.2 mi SSW 10.4 mph - N/A   Partly Cloudy
10:30 PM 84.2 °F 96.1 °F 78.8 °F 84% 29.71 in 6.2 mi South 12.7 mph - N/A   Partly Cloudy
11:00 PM 82 °F - 79 °F 89% 29.74 in 9 mi SSE 9.2 mph - -  
11:00 PM 84.2 °F 96.1 °F 78.8 °F 84% 29.71 in 6.2 mi South 12.7 mph - N/A   Scattered Clouds
11:30 PM 84.2 °F 96.1 °F 78.8 °F 84% 29.71 in 6.2 mi South 12.7 mph - N/A   Scattered Clouds